HK6RM-20 Weather Reports


time (UTC)temp
F
wind
direction
speed
knots
gust
knots
rain 1hr
in
rain 24hr
in
rain mn
in
humidity
%
barometer
mb
20260508015654 75 103 0.9 2.6 0.00 0.00 0.00 87 1014.0
20260508014354 76 103 0.9 2.6 0.00 0.00 0.00 87 1014.0
20260508013050 67 123 0.9 0.9 0.00 0.00 0.00 67 1014.0
20260508011746 68 123 0.9 0.9 0.00 0.00 0.00 67 1014.0
20260508010444 69 123 0.9 0.9 0.00 0.00 0.00 67 1014.0
20260508005143 70 123 0.9 0.9 0.00 0.00 0.00 67 1013.0
20260508003842 71 123 0.9 0.9 0.00 0.00 0.00 67 1013.0
20260508002540 72 123 0.9 0.9 0.00 0.00 0.00 67 1012.0
20260508001240 73 123 0.9 0.9 0.00 0.00 0.00 67 1011.0
20260507235939 74 123 0.9 0.9 0.00 0.00 0.00 67 1011.0
20260507234639 75 123 0.9 0.9 0.00 0.00 0.00 67 1011.0
20260507233338 76 123 0.9 0.9 0.00 0.00 0.00 67 1011.0
20260507232037 77 123 0.9 0.9 0.00 0.00 0.00 67 1010.0
20260507230737 78 123 0.9 0.9 0.00 0.00 0.00 67 1010.0
20260507225436 79 123 0.9 0.9 0.00 0.00 0.00 67 1009.0
20260507224133 80 123 0.9 1.7 0.00 0.00 0.00 67 1009.0
20260507222833 78 244 0.0 1.7 0.00 0.00 0.00 61 1008.0
20260507221532 79 244 0.0 1.7 0.00 0.00 0.00 61 1008.0
20260507220232 80 244 0.0 1.7 0.00 0.00 0.00 61 1008.0
20260507214932 81 244 0.0 1.7 0.00 0.00 0.00 61 1007.0
20260507213631 82 244 0.0 1.7 0.00 0.00 0.00 61 1007.0
20260507212328 85 301 1.7 0.9 0.00 0.00 0.00 55 1006.0
20260507211026 85 301 1.7 0.9 0.00 0.00 0.00 52 1006.0
20260507205725 85 301 1.7 0.9 0.00 0.00 0.00 48 1006.0
20260507204423 85 301 1.7 0.9 0.00 0.00 0.00 49 1006.0
20260507203122 85 301 1.7 0.9 0.00 0.00 0.00 49 1006.0
20260507201822 86 307 1.7 2.6 0.00 0.00 0.00 53 1006.0
20260507200519 86 307 1.7 2.6 0.00 0.00 0.00 50 1006.0
20260507195219 86 307 1.7 2.6 0.00 0.00 0.00 45 1006.0
20260507193917 86 307 1.7 2.6 0.00 0.00 0.00 46 1006.0
20260507192616 87 305 1.7 3.5 0.00 0.00 0.00 51 1008.0
20260507191316 87 305 1.7 3.5 0.00 0.00 0.00 48 1007.0
20260507190015 87 305 1.7 3.5 0.00 0.00 0.00 45 1007.0
20260507184714 87 305 1.7 3.5 0.00 0.00 0.00 45 1007.0
20260507183413 87 305 1.7 3.5 0.00 0.00 0.00 47 1008.0
20260507182112 87 295 2.6 3.5 0.00 0.00 0.00 51 1009.0
20260507180812 87 295 2.6 3.5 0.00 0.00 0.00 49 1009.0
20260507175512 87 295 2.6 3.5 0.00 0.00 0.00 49 1009.0
20260507174210 85 285 2.6 3.5 0.00 0.00 0.00 56 1009.0
20260507172910 86 285 2.6 3.5 0.00 0.00 0.00 56 1011.0
20260507171609 85 285 2.6 3.5 0.00 0.00 0.00 56 1011.0
20260507170308 85 285 2.6 3.5 0.00 0.00 0.00 56 1011.0
20260507165008 85 285 2.6 3.5 0.00 0.00 0.00 54 1011.0
20260507163707 83 280 2.6 3.5 0.00 0.00 0.00 61 1012.0
20260507162407 84 280 2.6 3.5 0.00 0.00 0.00 61 1013.0
20260507161106 82 280 2.6 3.5 0.00 0.00 0.00 60 1013.0
20260507155805 83 280 2.6 3.5 0.00 0.00 0.00 60 1013.0
20260507154504 82 280 2.6 3.5 0.00 0.00 0.00 63 1013.0
20260507153203 78 278 2.6 2.6 0.00 0.00 0.00 71 1013.0
20260507151902 79 278 2.6 2.6 0.00 0.00 0.00 71 1014.0
20260507150601 80 278 2.6 2.6 0.00 0.00 0.00 71 1014.0
20260507145259 81 278 2.6 2.6 0.00 0.00 0.00 71 1014.0
20260507143959 76 273 0.9 0.9 0.00 0.00 0.00 81 1015.0
20260507142658 77 273 0.9 0.9 0.00 0.00 0.00 81 1015.0
20260507141357 78 273 0.9 0.9 0.00 0.00 0.00 81 1015.0
20260507140056 79 273 0.9 0.9 0.00 0.00 0.00 81 1015.0
20260507134754 80 273 1.7 0.9 0.00 0.00 0.00 81 1015.0
20260507133454 71 276 0.9 0.9 0.00 0.00 0.00 91 1015.0
20260507132153 72 276 0.9 0.9 0.00 0.00 0.00 91 1016.0
20260507130853 73 276 0.9 0.9 0.00 0.00 0.00 91 1016.0
20260507125552 74 276 0.9 0.9 0.00 0.00 0.00 91 1015.0
20260507124252 68 276 0.9 0.9 0.00 0.00 0.00 92 1015.0
20260507122950 69 344 0.0 0.9 0.00 0.00 0.00 92 1015.0
20260507121650 70 344 0.0 0.9 0.00 0.00 0.00 92 1015.0
20260507120349 71 344 0.0 0.9 0.00 0.00 0.00 92 1015.0
20260507115048 72 357 0.0 0.0 0.00 0.00 0.00 92 1015.0
20260507113748 66 357 0.0 0.0 0.00 0.00 0.00 94 1015.0
20260507112447 67 75 0.0 0.9 0.00 0.00 0.00 94 1016.0
20260507111145 68 75 0.0 0.9 0.00 0.00 0.00 94 1016.0
20260507105844 69 75 0.0 0.9 0.00 0.00 0.00 94 1015.0
20260507104544 63 96 0.9 0.9 0.00 0.00 0.00 92 1015.0
20260507103243 64 96 0.9 0.9 0.00 0.00 0.00 92 1015.0
20260507101942 65 96 0.9 0.9 0.00 0.00 0.00 92 1015.0
20260507100641 66 96 0.9 0.9 0.00 0.00 0.00 92 1015.0
20260507095340 67 96 0.9 0.9 0.00 0.00 0.00 92 1015.0
20260507094038 68 96 0.9 0.9 0.00 0.00 0.00 92 1015.0
20260507092738 69 96 0.9 0.9 0.00 0.00 0.00 92 1015.0
20260507091437 70 96 0.9 1.7 0.00 0.00 0.00 92 1015.0
20260507090137 63 108 0.9 0.9 0.00 0.00 0.00 91 1015.0
20260507084834 64 108 0.9 0.9 0.00 0.00 0.00 91 1014.0
20260507083534 65 108 0.9 0.9 0.00 0.00 0.00 91 1014.0
20260507082233 66 108 0.9 0.9 0.00 0.00 0.00 91 1015.0
20260507080933 67 108 0.9 0.9 0.00 0.00 0.00 91 1015.0
20260507075631 68 108 0.9 0.9 0.00 0.00 0.00 91 1014.0
20260507074330 69 108 0.9 0.9 0.00 0.00 0.00 91 1014.0
20260507073028 70 108 0.9 0.9 0.00 0.00 0.00 91 1014.0
20260507071727 71 108 0.9 0.9 0.00 0.00 0.00 91 1015.0
20260507070424 72 108 0.9 0.9 0.00 0.00 0.00 91 1015.0
20260507065123 73 108 0.9 0.9 0.00 0.00 0.00 91 1015.0
20260507063823 74 108 0.9 1.7 0.00 0.00 0.00 91 1015.0
20260507062522 64 78 0.9 0.9 0.00 0.00 0.00 83 1016.0
20260507061221 65 78 0.9 0.9 0.00 0.00 0.00 83 1015.0
20260507055921 66 78 0.9 0.9 0.00 0.00 0.00 83 1015.0
20260507054620 67 78 0.9 0.9 0.00 0.00 0.00 83 1015.0
20260507053320 68 78 0.9 0.9 0.00 0.00 0.00 83 1015.0
20260507052019 69 78 0.9 0.9 0.00 0.00 0.00 83 1016.0
20260507050718 70 78 0.9 0.9 0.00 0.00 0.00 83 1016.0
20260507045418 71 78 0.9 0.9 0.00 0.00 0.00 83 1016.0
20260507044117 72 78 0.9 0.9 0.00 0.00 0.00 83 1016.0
20260507042816 73 78 0.9 1.7 0.00 0.00 0.00 83 1017.0
20260507041516 65 99 0.9 2.6 0.00 0.00 0.00 79 1017.0
20260507040215 66 99 0.9 2.6 0.00 0.00 0.00 79 1017.0
20260507034914 67 99 0.9 2.6 0.00 0.00 0.00 79 1016.0
20260507033614 68 99 0.9 2.6 0.00 0.00 0.00 79 1016.0
20260507032313 69 99 0.9 2.6 0.00 0.00 0.00 79 1016.0
20260507031011 70 99 0.9 2.6 0.00 0.00 0.00 79 1016.0
20260507025710 71 99 0.9 2.6 0.00 0.00 0.00 79 1015.0
20260507024410 72 99 0.9 2.6 0.00 0.00 0.00 79 1015.0
20260507023108 73 99 0.9 2.6 0.00 0.00 0.00 79 1015.0
20260507021806 74 99 0.9 2.6 0.00 0.00 0.00 79 1016.0